Zurück zum Katalog

EDISON-1

AktivWissenschaftSSO
NORAD 62610·PAYLOAD·🇩🇰 Denmark

Gestartet Jan 14, 2025 von Vandenberg Space Force Base

Loading…

Nächste Überflüge (nächste 24 Stunden)

TLE

AktuellSource: Space-Track

Epoche: Sep 13, 2026, 17:22 UTC

1 62610U 25009B   26256.72384996  .00009359  00000-0  29122-3 0  9995
2 62610  97.3956 339.2094 0004896   9.7559 350.3778 15.33513432 92518

Verfolge EDISON-1 in Echtzeit mit AllMySat

Download on the App Store